Погода в Новоаганске

Россия / Ханты-Мансийский автономный округ - Югра     61°56′44″N   76°40′03″E
темп.,
°C
ветер,
м/с
пор.,
м/с
влажн.,
%
обл.,
%
осадки,
мм/ч
давл.,
гПа
погр.,
м
22 апреля, чт
чт2223:00−11ююв119470 0.0 103810
02:00−10ю229595 0.0 103935
05:00−9юз35955 0.0 104173
08:00−2юз467835 0.0 1042347
11:00+1юз4676100 0.0 1042751
14:00+2юз4775100 0.0 1042662
17:00+2ююз367541 0.0 1042467
20:00−2ю398823 0.0 1042125
23 апреля, пт
пт2323:00−3ю410866 0.0 1042187
02:00−3ю411875 0.0 1041218
05:00−3ю511885 0.0 1041230
08:00+1ю613765 0.0 1040464
11:00+4ю612715 0.0 1039516
14:00+6ю611670 0.0 1038620
17:00+6ю611645 0.0 1038532
20:00+2ю411805 0.0 1037228
24 апреля, сб
сб2423:00+1ю512839 0.0 1036282
02:000ю511866 0.0 1035256
05:000ю511865 0.0 1034266
08:00+3ююз5976100 0.0 1032377
11:00+2ююз51193100 0.3 1031626
14:00+2ююз4998100 1.0 1031517
17:00+5ю2480100 1.1 1030179
20:00+1вюв119295 0.0 102916
25 апреля, вс
вс2523:000ююз1194100 0.0 102911
02:00+1ююв1193100 0.0 102919
05:00+1юз0097100 0.1 102913
08:00+2вюв1198100 0.2 102822
11:00+3юв1298100 0.2 102990
14:00+4юв129497 0.0 1028171
17:00+5всв239061 0.0 1028190
20:00+1всв359588 0.0 102879
26 апреля, пн
пн2623:00+1в369570 0.0 102785
02:00+1вюв369483 0.0 102697
05:00+1юв37925 0.0 1025137
08:00+6ююв497396 0.0 1023396
11:00+8юв5967100 0.0 10211030
14:00+9юв6961100 0.0 10181456
17:00+8юв61165100 0.0 1016928
20:00+6ююв61272100 0.0 1014540